Jefferson City, MO

7:19 PM CST on November 22, 2019 (GMT -0600)
Jefferson City Memorial

Weather History for KJEF - October, 2019

Change the Weather History Date:

Wednesday, October 23, 2019

  Actual Average Record
Temperature  
Mean Temperature 58 °F -  
Max Temperature 75 °F 67 °F 91 °F (1939)
Min Temperature 43 °F 41 °F 21 °F (1937)
Degree Days  
Heating Degree Days 7    
Growing Degree Days 8 (Base 50)    
Moisture  
Dew Point 38 °F    
Average Humidity 50    
Maximum Humidity 76    
Minimum Humidity 26    
Precipitation  
Precipitation 0.00 in - - ()
Sea Level Pressure  
Sea Level Pressure 29.94 in    
Wind  
Wind Speed 6 mph ()    
Max Wind Speed 21 mph    
Max Gust Speed 37 mph    
Visibility 10.0 miles    
Events      
Averages and records for this station are not official NWS values.
T = Trace of Precipitation, MM = Missing Value Source: Averaged Metar Reports

Daily Weather History Graph

Daily Weather History Graph

Search for Another Location

Airport or City:

Astronomy

Oct. 23, 2019 Rise Set
Actual Time 7:25 AM CDT 6:19 PM CDT
Civil Twilight 6:58 AM CDT 6:46 PM CDT
Nautical Twilight 6:27 AM CDT 7:17 PM CDT
Astronomical Twilight 5:56 AM CDT 7:48 PM CDT
Moon 1:49 AM CDT 4:05 PM CDT
Length of Visible Light 11h 48m
Length of Day
10h 54m
Waning Crescent, 26% of the Moon is Illuminated
Oct 23
Waning Crescent
Oct 27
New
Nov 4
First Quarter
Nov 12
Full
Nov 19
Last Quarter

Hourly Weather History & Observations

Time (CDT) Temp. Windchill Dew Point Humidity Pressure Visibility Wind Dir Wind Speed Gust Speed Precip Events Conditions
12:53 AM 44.1 °F 41.5 °F 36.0 °F 73% 29.96 in 10.0 mi ESE 4.6 mph - N/A   Clear
1:53 AM 46.0 °F 43.1 °F 35.1 °F 66% 29.95 in 10.0 mi SSE 5.8 mph - N/A   Clear
2:53 AM 46.9 °F - 35.1 °F 63% 29.96 in 10.0 mi Variable 4.6 mph - N/A   Clear
3:53 AM 45.0 °F 41.8 °F 35.1 °F 68% 29.95 in 10.0 mi ESE 5.8 mph - N/A   Clear
4:53 AM 45.0 °F 41.8 °F 36.0 °F 71% 29.95 in 10.0 mi ESE 5.8 mph - N/A   Clear
5:53 AM 45.0 °F 42.6 °F 35.1 °F 68% 29.96 in 10.0 mi ESE 4.6 mph - N/A   Clear
6:53 AM 43.0 °F 39.5 °F 36.0 °F 76% 29.96 in 10.0 mi ESE 5.8 mph - N/A   Clear
7:53 AM 46.0 °F 43.9 °F 36.0 °F 68% 29.96 in 10.0 mi ESE 4.6 mph - N/A   Partly Cloudy
8:53 AM 48.9 °F - 37.0 °F 64% 29.97 in 10.0 mi ESE 5.8 mph - N/A   Clear
9:53 AM 53.1 °F - 37.9 °F 57% 29.98 in 10.0 mi East 4.6 mph - N/A   Clear
10:53 AM 57.0 °F - 39.0 °F 51% 29.96 in 10.0 mi Calm Calm - N/A   Clear
11:53 AM 62.1 °F - 41.0 °F 46% 29.94 in 10.0 mi South 4.6 mph - N/A   Clear
12:53 PM 66.9 °F - 39.9 °F 37% 29.91 in 10.0 mi South 8.1 mph 21.9 mph N/A   Clear
1:53 PM 73.0 °F - 36.0 °F 26% 29.87 in 10.0 mi SW 20.7 mph 36.8 mph N/A   Clear
2:53 PM 73.0 °F - 37.0 °F 27% 29.85 in 10.0 mi SSW 18.4 mph 26.5 mph N/A   Clear
3:53 PM 73.9 °F - 37.9 °F 27% 29.84 in 10.0 mi SSW 17.3 mph 26.5 mph N/A   Clear
4:53 PM 73.9 °F - 37.9 °F 27% 29.85 in 10.0 mi SSW 17.3 mph 27.6 mph N/A   Clear
5:53 PM 73.0 °F - 37.9 °F 28% 29.88 in 10.0 mi SW 13.8 mph - N/A   Clear
6:53 PM 70.0 °F - 37.9 °F 31% 29.92 in 10.0 mi SW 6.9 mph - N/A   Clear
7:53 PM 68.0 °F - 39.0 °F 35% 29.94 in 10.0 mi SSW 6.9 mph - N/A   Mostly Cloudy
8:53 PM 66.9 °F - 39.9 °F 37% 29.97 in 10.0 mi WNW 12.7 mph 18.4 mph N/A   Overcast
9:53 PM 64.0 °F - 43.0 °F 46% 30.01 in 10.0 mi NW 6.9 mph - N/A   Clear
10:53 PM 61.0 °F - 44.1 °F 54% 30.05 in 10.0 mi WNW 5.8 mph - N/A   Scattered Clouds
11:53 PM 59.0 °F - 45.0 °F 60% 30.08 in 10.0 mi WNW 5.8 mph - N/A   Overcast